Location: Newark
(49.3000°N, 9.4667°E)
Time: 23:30:56
(UTC+00:00)

Vanguard 2 - All Passes

Search period start: 20 May 2019 00:00
Search period end: 30 May 2019 00:00
Orbit: 553 x 2939 km, 32.9° (Epoch: 20 May)

Date Brightness Start Highest point End Pass type
(mag) Time Alt. Az. Time Alt. Az. Time Alt. Az.
20 May - 15:26:52 10° S 15:37:27 20° SSE 15:46:18 10° ESE daylight
20 May - 17:34:09 10° SW 17:47:04 32° S 17:56:18 10° ESE daylight
20 May - 19:45:03 10° WSW 19:56:11 32° S 20:03:38 10° SE visible
20 May - 21:57:49 10° WSW 22:03:53 18° SSW 22:08:31 10° S visible
21 May - 15:42:44 10° SSW 15:55:02 25° SSE 16:05:00 10° ESE daylight
21 May - 17:51:22 10° SW 18:04:45 35° S 18:14:10 10° ESE daylight
21 May - 20:02:52 10° WSW 20:13:44 31° SSW 20:21:05 10° SE visible
21 May - 22:16:36 10° WSW 22:21:07 14° SW 22:24:50 10° S visible
22 May - 13:55:26 10° SSE 14:03:06 14° SE 14:10:13 10° ESE daylight
22 May - 15:59:08 10° SSW 16:12:38 29° SSE 16:23:19 10° ESE daylight
22 May - 18:08:47 10° WSW 18:22:26 37° S 18:31:55 10° ESE daylight
22 May - 20:20:48 10° WSW 20:31:13 28° SSW 20:38:24 10° SSE visible
22 May - 22:37:02 10° SW 22:38:17 10° SW 22:39:27 10° SW visible
23 May - 14:09:52 10° S 14:20:30 19° SE 14:30:07 10° ESE daylight
23 May - 16:15:56 10° SW 16:30:16 34° SSE 16:41:24 10° ESE daylight
23 May - 18:26:22 10° WSW 18:40:05 37° S 18:49:33 10° ESE daylight
23 May - 20:38:53 10° WSW 20:48:37 25° SSW 20:55:31 10° SSE visible
24 May - 14:25:27 10° SSW 14:37:56 24° SSE 14:49:03 10° ESE daylight
24 May - 16:33:01 10° SW 16:47:56 37° S 16:59:20 10° ESE daylight
24 May - 18:44:05 10° WSW 18:57:41 37° SSW 19:07:06 10° SE daylight
24 May - 20:57:12 10° WSW 21:05:56 22° SW 21:12:22 10° SSE visible
25 May - 12:40:32 10° SSE 12:46:10 12° SE 12:51:43 10° ESE daylight
25 May - 14:41:39 10° SSW 14:55:26 29° SSE 15:07:31 10° ESE daylight
25 May - 16:50:19 10° SW 17:05:35 39° S 17:17:09 10° ESE daylight
25 May - 19:01:55 10° WSW 19:15:14 35° SSW 19:24:31 10° SE daylight
25 May - 21:15:51 10° WSW 21:23:08 18° SW 21:28:48 10° S visible
26 May - 12:53:56 10° S 13:03:23 17° SE 13:12:41 10° ESE daylight
26 May - 14:58:17 10° SW 15:12:58 33° SSE 15:25:44 10° ESE daylight
26 May - 17:07:49 10° WSW 17:23:16 41° S 17:34:52 10° ESE daylight
26 May - 19:19:53 10° WSW 19:32:43 32° SSW 19:41:47 10° SE daylight
26 May - 21:35:13 10° WSW 21:40:14 13° SW 21:44:28 10° SSW visible
27 May - 13:09:06 10° S 13:20:40 22° SE 13:32:03 10° ESE daylight
27 May - 15:15:15 10° SW 15:30:33 37° SSE 15:43:45 10° ESE daylight
27 May - 17:25:27 10° WSW 17:40:54 41° S 17:52:29 10° ESE daylight
27 May - 19:38:00 10° W 19:50:05 29° SSW 19:58:51 10° SSE visible
28 May - 13:25:03 10° SSW 13:38:00 27° SSE 13:50:46 10° E daylight
28 May - 15:32:27 10° SW 15:48:10 40° S 16:01:38 10° ESE daylight
28 May - 17:43:13 10° WSW 17:58:30 40° SSW 18:09:59 10° SE daylight
28 May - 19:56:18 10° W 20:07:22 25° SW 20:15:39 10° SSE visible
29 May - 11:39:34 10° SSE 11:46:25 14° SE 11:53:32 10° ESE daylight
29 May - 13:41:31 10° SSW 13:55:25 32° SSE 14:09:07 10° E daylight
29 May - 15:49:50 10° WSW 16:05:49 43° S 16:19:25 10° ESE daylight
29 May - 18:01:05 10° WSW 18:16:03 38° SSW 18:27:22 10° SE daylight
29 May - 20:14:56 10° W 20:24:33 20° SW 20:32:04 10° S visible
